{"data":{"norad_id":64389,"intl_designator":"2025-127V","name":"STARLINK-34279","alt_names":[],"object_type":"PAYLOAD","status":"ACTIVE","operator":null,"country":"US","launch_date":"2025-06-13","launch_site_code":"AFETR","launch_vehicle":null,"mission":null,"orbit_class":"UNKNOWN","rcs_meters":null,"size_class":null,"mass_kg":null,"dimensions":null,"purposes":["comms"],"wikipedia_slug":null,"has_3d_model":false,"image_url":null,"decayed_at":null,"tle_current":{"epoch":"2026-05-24T22:38:14.443008Z","epoch_age_seconds":90475,"freshness":"FRESH","line1":"1 64389U 25127V   26144.94322272 -.00011938  00000+0 -42511-3 0  9994","line2":"2 64389  43.0010 109.6135 0001016 250.6649 109.4093 15.27570108 54129","mean_motion":15.27570108,"eccentricity":0.0001016,"inclination_deg":43.001,"raan_deg":109.6135,"arg_perigee_deg":250.6649,"mean_anomaly_deg":109.4093,"bstar":-0.00042511,"rev_number":5412,"period_min":94.267359151545,"perigee_km":482.38161688934,"apogee_km":483.77581592291,"semimajor_km":6861.2157164061,"source":"CELESTRAK","updated_at":"2026-05-25T13:38:20.415055Z"}}}